iso_date,epoch_date,Year,Hour,Min,DOY,POS_DOY,Lat,Lon,BP,Ts,Ta,has_bp,has_ts,has_ta,BuoyID,Buoy_Type,Buoy_Owner,Logistics,Hemisphere
2021-09-20T18:00:00Z,1632160800,2021,18,0,263.75,263.75,64.201,-31.757,1002.1,9.97,-999.0,yes,yes,no,300234066213860,BD2VHI,AOML,UNKNOWN,North
2021-09-20T21:00:00Z,1632171600,2021,21,0,263.875,263.875,64.237,-31.819,1000.6,9.93,-999.0,yes,yes,no,300234066213860,BD2VHI,AOML,UNKNOWN,North
2021-09-21T00:00:00Z,1632182400,2021,0,0,264.0,264.0,64.284,-31.871,997.5,9.92,-999.0,yes,yes,no,300234066213860,BD2VHI,AOML,UNKNOWN,North
2021-09-21T03:00:00Z,1632193200,2021,3,0,264.125,264.125,64.322,-31.929,993.3,9.94,-999.0,yes,yes,no,300234066213860,BD2VHI,AOML,UNKNOWN,North
2021-09-21T06:00:00Z,1632204000,2021,6,0,264.25,264.25,64.346,-32.008,989.6,9.87,-999.0,yes,yes,no,300234066213860,BD2VHI,AOML,UNKNOWN,North
2021-09-21T09:00:00Z,1632214800,2021,9,0,264.375,264.375,64.354,-32.088,987.6,9.88,-999.0,yes,yes,no,300234066213860,BD2VHI,AOML,UNKNOWN,North
2021-09-21T12:00:00Z,1632225600,2021,12,0,264.5,264.5,64.353,-32.209,988.7,9.83,-999.0,yes,yes,no,300234066213860,BD2VHI,AOML,UNKNOWN,North
2021-09-21T15:00:00Z,1632236400,2021,15,0,264.625,264.625,64.343,-32.307,990.6,9.9,-999.0,yes,yes,no,300234066213860,BD2VHI,AOML,UNKNOWN,North
2021-09-21T18:00:00Z,1632247200,2021,18,0,264.75,264.75,64.334,-32.392,991.7,9.91,-999.0,yes,yes,no,300234066213860,BD2VHI,AOML,UNKNOWN,North
2021-09-21T21:00:00Z,1632258000,2021,21,0,264.875,264.875,64.326,-32.472,991.4,9.86,-999.0,yes,yes,no,300234066213860,BD2VHI,AOML,UNKNOWN,North
2021-09-22T00:00:00Z,1632268800,2021,0,0,265.0,265.0,64.329,-32.5,990.2,9.82,-999.0,yes,yes,no,300234066213860,BD2VHI,AOML,UNKNOWN,North
2021-09-22T03:00:00Z,1632279600,2021,3,0,265.125,265.125,64.333,-32.457,987.9,9.81,-999.0,yes,yes,no,300234066213860,BD2VHI,AOML,UNKNOWN,North
2021-09-22T06:00:00Z,1632290400,2021,6,0,265.25,265.25,64.329,-32.429,986.9,9.78,-999.0,yes,yes,no,300234066213860,BD2VHI,AOML,UNKNOWN,North
2021-09-22T09:00:00Z,1632301200,2021,9,0,265.375,265.375,64.302,-32.434,989.6,9.72,-999.0,yes,yes,no,300234066213860,BD2VHI,AOML,UNKNOWN,North
2021-09-22T12:00:00Z,1632312000,2021,12,0,265.5,265.5,64.279,-32.446,993.5,9.71,-999.0,yes,yes,no,300234066213860,BD2VHI,AOML,UNKNOWN,North
2021-09-22T15:00:00Z,1632322800,2021,15,0,265.625,265.625,64.284,-32.458,995.9,9.78,-999.0,yes,yes,no,300234066213860,BD2VHI,AOML,UNKNOWN,North
2021-09-22T18:00:00Z,1632333600,2021,18,0,265.75,265.75,64.297,-32.45,997.3,9.78,-999.0,yes,yes,no,300234066213860,BD2VHI,AOML,UNKNOWN,North
2021-09-22T21:00:00Z,1632344400,2021,21,0,265.875,265.875,64.303,-32.459,998.3,9.78,-999.0,yes,yes,no,300234066213860,BD2VHI,AOML,UNKNOWN,North
2021-09-23T00:00:00Z,1632355200,2021,0,0,266.0,266.0,64.306,-32.467,998.6,9.72,-999.0,yes,yes,no,300234066213860,BD2VHI,AOML,UNKNOWN,North
2021-09-23T03:00:00Z,1632366000,2021,3,0,266.125,266.125,64.327,-32.459,997.4,9.72,-999.0,yes,yes,no,300234066213860,BD2VHI,AOML,UNKNOWN,North
2021-09-23T06:00:00Z,1632376800,2021,6,0,266.25,266.25,64.337,-32.45,995.9,9.68,-999.0,yes,yes,no,300234066213860,BD2VHI,AOML,UNKNOWN,North
2021-09-23T09:00:00Z,1632387600,2021,9,0,266.375,266.375,64.333,-32.51,993.3,9.64,-999.0,yes,yes,no,300234066213860,BD2VHI,AOML,UNKNOWN,North
2021-09-23T12:00:00Z,1632398400,2021,12,0,266.5,266.5,64.329,-32.583,993.3,9.58,-999.0,yes,yes,no,300234066213860,BD2VHI,AOML,UNKNOWN,North
2021-09-23T15:00:00Z,1632409200,2021,15,0,266.625,266.625,64.333,-32.608,993.8,9.67,-999.0,yes,yes,no,300234066213860,BD2VHI,AOML,UNKNOWN,North
2021-09-23T18:00:00Z,1632420000,2021,18,0,266.75,266.75,64.331,-32.58,994.3,9.69,-999.0,yes,yes,no,300234066213860,BD2VHI,AOML,UNKNOWN,North
2021-09-23T21:00:00Z,1632430800,2021,21,0,266.875,266.875,64.299,-32.595,995.7,9.65,-999.0,yes,yes,no,300234066213860,BD2VHI,AOML,UNKNOWN,North
2021-09-24T00:00:00Z,1632441600,2021,0,0,267.0,267.0,64.279,-32.642,996.7,9.61,-999.0,yes,yes,no,300234066213860,BD2VHI,AOML,UNKNOWN,North
2021-09-24T03:00:00Z,1632452400,2021,3,0,267.125,267.125,64.275,-32.658,997.3,9.67,-999.0,yes,yes,no,300234066213860,BD2VHI,AOML,UNKNOWN,North
2021-09-24T06:00:00Z,1632463200,2021,6,0,267.25,267.25,64.26,-32.666,997.1,9.67,-999.0,yes,yes,no,300234066213860,BD2VHI,AOML,UNKNOWN,North
2021-09-24T09:00:00Z,1632474000,2021,9,0,267.375,267.375,64.243,-32.72,997.3,9.6,-999.0,yes,yes,no,300234066213860,BD2VHI,AOML,UNKNOWN,North
2021-09-24T12:00:00Z,1632484800,2021,12,0,267.5,267.5,64.228,-32.783,997.0,9.63,-999.0,yes,yes,no,300234066213860,BD2VHI,AOML,UNKNOWN,North
2021-09-24T15:00:00Z,1632495600,2021,15,0,267.625,267.625,64.226,-32.82,996.6,9.64,-999.0,yes,yes,no,300234066213860,BD2VHI,AOML,UNKNOWN,North
2021-09-24T18:00:00Z,1632506400,2021,18,0,267.75,267.75,64.212,-32.874,996.7,9.59,-999.0,yes,yes,no,300234066213860,BD2VHI,AOML,UNKNOWN,North
2021-09-24T21:00:00Z,1632517200,2021,21,0,267.875,267.875,64.19,-32.953,997.2,9.61,-999.0,yes,yes,no,300234066213860,BD2VHI,AOML,UNKNOWN,North
2021-09-25T00:00:00Z,1632528000,2021,0,0,268.0,268.0,64.16,-33.055,997.7,9.56,-999.0,yes,yes,no,300234066213860,BD2VHI,AOML,UNKNOWN,North
2021-09-25T03:00:00Z,1632538800,2021,3,0,268.125,268.125,64.12,-33.126,997.6,9.56,-999.0,yes,yes,no,300234066213860,BD2VHI,AOML,UNKNOWN,North
2021-09-25T06:00:00Z,1632549600,2021,6,0,268.25,268.25,64.071,-33.239,998.3,9.24,-999.0,yes,yes,no,300234066213860,BD2VHI,AOML,UNKNOWN,North
2021-09-25T09:00:00Z,1632560400,2021,9,0,268.375,268.375,64.047,-33.399,1000.2,9.29,-999.0,yes,yes,no,300234066213860,BD2VHI,AOML,UNKNOWN,North
2021-09-25T12:00:00Z,1632571200,2021,12,0,268.5,268.5,64.027,-33.546,1001.9,9.22,-999.0,yes,yes,no,300234066213860,BD2VHI,AOML,UNKNOWN,North
2021-09-25T15:00:00Z,1632582000,2021,15,0,268.625,268.625,63.997,-33.658,1002.9,9.23,-999.0,yes,yes,no,300234066213860,BD2VHI,AOML,UNKNOWN,North
2021-09-25T18:00:00Z,1632592800,2021,18,0,268.75,268.75,63.959,-33.758,1004.3,9.1,-999.0,yes,yes,no,300234066213860,BD2VHI,AOML,UNKNOWN,North
2021-09-25T21:00:00Z,1632603600,2021,21,0,268.875,268.875,63.929,-33.882,1005.8,8.88,-999.0,yes,yes,no,300234066213860,BD2VHI,AOML,UNKNOWN,North
2021-09-26T00:00:00Z,1632614400,2021,0,0,269.0,269.0,63.909,-33.962,1007.0,8.41,-999.0,yes,yes,no,300234066213860,BD2VHI,AOML,UNKNOWN,North
2021-09-26T03:00:00Z,1632625200,2021,3,0,269.125,269.125,63.888,-33.995,1007.7,8.41,-999.0,yes,yes,no,300234066213860,BD2VHI,AOML,UNKNOWN,North
2021-09-26T06:00:00Z,1632636000,2021,6,0,269.25,269.25,63.854,-34.031,1008.6,8.52,-999.0,yes,yes,no,300234066213860,BD2VHI,AOML,UNKNOWN,North
2021-09-26T09:00:00Z,1632646800,2021,9,0,269.375,269.375,63.816,-34.102,1009.5,8.44,-999.0,yes,yes,no,300234066213860,BD2VHI,AOML,UNKNOWN,North
2021-09-26T12:00:00Z,1632657600,2021,12,0,269.5,269.5,63.796,-34.193,1010.0,8.68,-999.0,yes,yes,no,300234066213860,BD2VHI,AOML,UNKNOWN,North
2021-09-26T15:00:00Z,1632668400,2021,15,0,269.625,269.625,63.782,-34.24,1010.7,8.78,-999.0,yes,yes,no,300234066213860,BD2VHI,AOML,UNKNOWN,North
2021-09-26T18:00:00Z,1632679200,2021,18,0,269.75,269.75,63.76,-34.27,1010.9,8.79,-999.0,yes,yes,no,300234066213860,BD2VHI,AOML,UNKNOWN,North
2021-09-26T21:00:00Z,1632690000,2021,21,0,269.875,269.875,63.739,-34.342,1012.0,8.78,-999.0,yes,yes,no,300234066213860,BD2VHI,AOML,UNKNOWN,North
2021-09-27T00:00:00Z,1632700800,2021,0,0,270.0,270.0,63.727,-34.414,1012.8,8.78,-999.0,yes,yes,no,300234066213860,BD2VHI,AOML,UNKNOWN,North
2021-09-27T03:00:00Z,1632711600,2021,3,0,270.125,270.125,63.73,-34.458,1013.2,8.65,-999.0,yes,yes,no,300234066213860,BD2VHI,AOML,UNKNOWN,North
2021-09-27T06:00:00Z,1632722400,2021,6,0,270.25,270.25,63.73,-34.477,1013.7,8.68,-999.0,yes,yes,no,300234066213860,BD2VHI,AOML,UNKNOWN,North
2021-09-27T09:00:00Z,1632733200,2021,9,0,270.375,270.375,63.74,-34.486,1013.5,8.6,-999.0,yes,yes,no,300234066213860,BD2VHI,AOML,UNKNOWN,North
2021-09-27T12:00:00Z,1632744000,2021,12,0,270.5,270.5,63.757,-34.483,1013.0,8.61,-999.0,yes,yes,no,300234066213860,BD2VHI,AOML,UNKNOWN,North
2021-09-27T15:00:00Z,1632754800,2021,15,0,270.625,270.625,63.77,-34.439,1012.9,8.78,-999.0,yes,yes,no,300234066213860,BD2VHI,AOML,UNKNOWN,North
2021-09-27T18:00:00Z,1632765600,2021,18,0,270.75,270.75,63.776,-34.392,1013.2,8.76,-999.0,yes,yes,no,300234066213860,BD2VHI,AOML,UNKNOWN,North
2021-09-27T21:00:00Z,1632776400,2021,21,0,270.875,270.875,63.775,-34.347,1014.3,8.72,-999.0,yes,yes,no,300234066213860,BD2VHI,AOML,UNKNOWN,North
2021-09-28T00:00:00Z,1632787200,2021,0,0,271.0,271.0,63.768,-34.33,1014.8,8.71,-999.0,yes,yes,no,300234066213860,BD2VHI,AOML,UNKNOWN,North
2021-09-28T03:00:00Z,1632798000,2021,3,0,271.125,271.125,63.758,-34.32,1015.3,8.72,-999.0,yes,yes,no,300234066213860,BD2VHI,AOML,UNKNOWN,North
2021-09-28T06:00:00Z,1632808800,2021,6,0,271.25,271.25,63.761,-34.336,1015.6,8.71,-999.0,yes,yes,no,300234066213860,BD2VHI,AOML,UNKNOWN,North
2021-09-28T09:00:00Z,1632819600,2021,9,0,271.375,271.375,63.761,-34.339,1015.3,8.72,-999.0,yes,yes,no,300234066213860,BD2VHI,AOML,UNKNOWN,North
2021-09-28T12:00:00Z,1632830400,2021,12,0,271.5,271.5,63.757,-34.334,1014.2,8.74,-999.0,yes,yes,no,300234066213860,BD2VHI,AOML,UNKNOWN,North
2021-09-28T15:00:00Z,1632841200,2021,15,0,271.625,271.625,63.759,-34.32,1012.3,8.82,-999.0,yes,yes,no,300234066213860,BD2VHI,AOML,UNKNOWN,North
2021-09-28T18:00:00Z,1632852000,2021,18,0,271.75,271.75,63.762,-34.285,1009.5,8.79,-999.0,yes,yes,no,300234066213860,BD2VHI,AOML,UNKNOWN,North
2021-09-28T21:00:00Z,1632862800,2021,21,0,271.875,271.875,63.773,-34.245,1008.9,8.74,-999.0,yes,yes,no,300234066213860,BD2VHI,AOML,UNKNOWN,North
2021-09-29T00:00:00Z,1632873600,2021,0,0,272.0,272.0,63.773,-34.186,1008.5,8.7,-999.0,yes,yes,no,300234066213860,BD2VHI,AOML,UNKNOWN,North
2021-09-29T03:00:00Z,1632884400,2021,3,0,272.125,272.125,63.767,-34.158,1008.9,8.75,-999.0,yes,yes,no,300234066213860,BD2VHI,AOML,UNKNOWN,North
2021-09-29T06:00:00Z,1632895200,2021,6,0,272.25,272.25,63.772,-34.172,1008.8,8.74,-999.0,yes,yes,no,300234066213860,BD2VHI,AOML,UNKNOWN,North
2021-09-29T09:00:00Z,1632906000,2021,9,0,272.375,272.375,63.788,-34.176,1009.9,8.72,-999.0,yes,yes,no,300234066213860,BD2VHI,AOML,UNKNOWN,North
2021-09-29T12:00:00Z,1632916800,2021,12,0,272.5,272.5,63.79,-34.153,1011.2,8.72,-999.0,yes,yes,no,300234066213860,BD2VHI,AOML,UNKNOWN,North
2021-09-29T15:00:00Z,1632927600,2021,15,0,272.625,272.625,63.771,-34.138,1011.2,8.72,-999.0,yes,yes,no,300234066213860,BD2VHI,AOML,UNKNOWN,North
2021-09-29T18:00:00Z,1632938400,2021,18,0,272.75,272.75,63.749,-34.154,1011.0,8.74,-999.0,yes,yes,no,300234066213860,BD2VHI,AOML,UNKNOWN,North
2021-09-29T21:00:00Z,1632949200,2021,21,0,272.875,272.875,63.742,-34.178,1011.0,8.67,-999.0,yes,yes,no,300234066213860,BD2VHI,AOML,UNKNOWN,North
2021-09-30T00:00:00Z,1632960000,2021,0,0,273.0,273.0,63.736,-34.16,1010.6,8.62,-999.0,yes,yes,no,300234066213860,BD2VHI,AOML,UNKNOWN,North
2021-09-30T03:00:00Z,1632970800,2021,3,0,273.125,273.125,63.709,-34.142,1010.1,8.57,-999.0,yes,yes,no,300234066213860,BD2VHI,AOML,UNKNOWN,North
2021-09-30T06:00:00Z,1632981600,2021,6,0,273.25,273.25,63.673,-34.149,1009.9,8.45,-999.0,yes,yes,no,300234066213860,BD2VHI,AOML,UNKNOWN,North
2021-09-30T09:00:00Z,1632992400,2021,9,0,273.375,273.375,63.65,-34.158,1010.3,8.55,-999.0,yes,yes,no,300234066213860,BD2VHI,AOML,UNKNOWN,North
2021-09-30T12:00:00Z,1633003200,2021,12,0,273.5,273.5,63.637,-34.175,1010.9,8.56,-999.0,yes,yes,no,300234066213860,BD2VHI,AOML,UNKNOWN,North
2021-09-30T15:00:00Z,1633014000,2021,15,0,273.625,273.625,63.624,-34.191,1012.2,8.57,-999.0,yes,yes,no,300234066213860,BD2VHI,AOML,UNKNOWN,North
2021-09-30T18:00:00Z,1633024800,2021,18,0,273.75,273.75,63.609,-34.225,1013.1,8.52,-999.0,yes,yes,no,300234066213860,BD2VHI,AOML,UNKNOWN,North
2021-09-30T21:00:00Z,1633035600,2021,21,0,273.875,273.875,63.581,-34.284,1015.2,8.46,-999.0,yes,yes,no,300234066213860,BD2VHI,AOML,UNKNOWN,North
2021-10-01T00:00:00Z,1633046400,2021,0,0,274.0,274.0,63.558,-34.345,1015.6,8.51,-999.0,yes,yes,no,300234066213860,BD2VHI,AOML,UNKNOWN,North
2021-10-01T03:00:00Z,1633057200,2021,3,0,274.125,274.125,63.524,-34.379,1014.9,8.45,-999.0,yes,yes,no,300234066213860,BD2VHI,AOML,UNKNOWN,North
2021-10-01T06:00:00Z,1633068000,2021,6,0,274.25,274.25,63.481,-34.419,1014.4,8.44,-999.0,yes,yes,no,300234066213860,BD2VHI,AOML,UNKNOWN,North
2021-10-01T09:00:00Z,1633078800,2021,9,0,274.375,274.375,63.442,-34.454,1015.3,8.46,-999.0,yes,yes,no,300234066213860,BD2VHI,AOML,UNKNOWN,North
2021-10-01T12:00:00Z,1633089600,2021,12,0,274.5,274.5,63.405,-34.511,1015.5,8.37,-999.0,yes,yes,no,300234066213860,BD2VHI,AOML,UNKNOWN,North
2021-10-01T15:00:00Z,1633100400,2021,15,0,274.625,274.625,63.383,-34.553,1015.9,8.44,-999.0,yes,yes,no,300234066213860,BD2VHI,AOML,UNKNOWN,North
2021-10-01T18:00:00Z,1633111200,2021,18,0,274.75,274.75,63.348,-34.533,1014.6,8.46,-999.0,yes,yes,no,300234066213860,BD2VHI,AOML,UNKNOWN,North
2021-10-01T21:00:00Z,1633122000,2021,21,0,274.875,274.875,63.305,-34.515,1014.4,8.42,-999.0,yes,yes,no,300234066213860,BD2VHI,AOML,UNKNOWN,North
2021-10-02T00:00:00Z,1633132800,2021,0,0,275.0,275.0,63.273,-34.511,1013.3,8.45,-999.0,yes,yes,no,300234066213860,BD2VHI,AOML,UNKNOWN,North
2021-10-02T03:00:00Z,1633143600,2021,3,0,275.125,275.125,63.253,-34.482,1011.8,8.46,-999.0,yes,yes,no,300234066213860,BD2VHI,AOML,UNKNOWN,North
2021-10-02T06:00:00Z,1633154400,2021,6,0,275.25,275.25,63.231,-34.45,1010.2,8.31,-999.0,yes,yes,no,300234066213860,BD2VHI,AOML,UNKNOWN,North
2021-10-02T09:00:00Z,1633165200,2021,9,0,275.375,275.375,63.214,-34.448,1009.2,8.34,-999.0,yes,yes,no,300234066213860,BD2VHI,AOML,UNKNOWN,North
2021-10-02T12:00:00Z,1633176000,2021,12,0,275.5,275.5,63.202,-34.459,1008.4,8.37,-999.0,yes,yes,no,300234066213860,BD2VHI,AOML,UNKNOWN,North
2021-10-02T15:00:00Z,1633186800,2021,15,0,275.625,275.625,63.189,-34.493,1007.4,8.39,-999.0,yes,yes,no,300234066213860,BD2VHI,AOML,UNKNOWN,North
2021-10-02T18:00:00Z,1633197600,2021,18,0,275.75,275.75,63.182,-34.541,1007.4,8.4,-999.0,yes,yes,no,300234066213860,BD2VHI,AOML,UNKNOWN,North
2021-10-02T21:00:00Z,1633208400,2021,21,0,275.875,275.875,63.164,-34.586,1008.5,8.35,-999.0,yes,yes,no,300234066213860,BD2VHI,AOML,UNKNOWN,North
2021-10-03T00:00:00Z,1633219200,2021,0,0,276.0,276.0,63.139,-34.654,1008.6,8.34,-999.0,yes,yes,no,300234066213860,BD2VHI,AOML,UNKNOWN,North
2021-10-03T03:00:00Z,1633230000,2021,3,0,276.125,276.125,63.12,-34.754,1009.0,8.28,-999.0,yes,yes,no,300234066213860,BD2VHI,AOML,UNKNOWN,North
2021-10-03T06:00:00Z,1633240800,2021,6,0,276.25,276.25,63.104,-34.853,1009.5,8.25,-999.0,yes,yes,no,300234066213860,BD2VHI,AOML,UNKNOWN,North
2021-10-03T09:00:00Z,1633251600,2021,9,0,276.375,276.375,63.079,-34.928,1010.1,8.34,-999.0,yes,yes,no,300234066213860,BD2VHI,AOML,UNKNOWN,North
2021-10-03T12:00:00Z,1633262400,2021,12,0,276.5,276.5,63.05,-34.98,1010.4,8.63,-999.0,yes,yes,no,300234066213860,BD2VHI,AOML,UNKNOWN,North
2021-10-03T15:00:00Z,1633273200,2021,15,0,276.625,276.625,63.019,-35.016,1010.3,8.58,-999.0,yes,yes,no,300234066213860,BD2VHI,AOML,UNKNOWN,North
2021-10-03T18:00:00Z,1633284000,2021,18,0,276.75,276.75,62.995,-35.074,1010.7,8.6,-999.0,yes,yes,no,300234066213860,BD2VHI,AOML,UNKNOWN,North
2021-10-03T21:00:00Z,1633294800,2021,21,0,276.875,276.875,62.978,-35.097,1011.4,8.5,-999.0,yes,yes,no,300234066213860,BD2VHI,AOML,UNKNOWN,North
2021-10-04T00:00:00Z,1633305600,2021,0,0,277.0,277.0,62.957,-35.107,1011.8,8.49,-999.0,yes,yes,no,300234066213860,BD2VHI,AOML,UNKNOWN,North
2021-10-04T03:00:00Z,1633316400,2021,3,0,277.125,277.125,62.939,-35.138,1011.8,8.31,-999.0,yes,yes,no,300234066213860,BD2VHI,AOML,UNKNOWN,North
2021-10-04T06:00:00Z,1633327200,2021,6,0,277.25,277.25,62.921,-35.184,1011.7,8.21,-999.0,yes,yes,no,300234066213860,BD2VHI,AOML,UNKNOWN,North
2021-10-04T09:00:00Z,1633338000,2021,9,0,277.375,277.375,62.914,-35.219,1011.9,8.35,-999.0,yes,yes,no,300234066213860,BD2VHI,AOML,UNKNOWN,North
2021-10-04T12:00:00Z,1633348800,2021,12,0,277.5,277.5,62.91,-35.225,1012.1,8.4,-999.0,yes,yes,no,300234066213860,BD2VHI,AOML,UNKNOWN,North
2021-10-04T15:00:00Z,1633359600,2021,15,0,277.625,277.625,62.904,-35.222,1012.1,8.4,-999.0,yes,yes,no,300234066213860,BD2VHI,AOML,UNKNOWN,North
2021-10-04T18:00:00Z,1633370400,2021,18,0,277.75,277.75,62.909,-35.24,1011.6,8.43,-999.0,yes,yes,no,300234066213860,BD2VHI,AOML,UNKNOWN,North
2021-10-04T21:00:00Z,1633381200,2021,21,0,277.875,277.875,62.918,-35.248,1012.0,8.47,-999.0,yes,yes,no,300234066213860,BD2VHI,AOML,UNKNOWN,North
2021-10-05T00:00:00Z,1633392000,2021,0,0,278.0,278.0,62.925,-35.241,1012.1,8.48,-999.0,yes,yes,no,300234066213860,BD2VHI,AOML,UNKNOWN,North
2021-10-05T03:00:00Z,1633402800,2021,3,0,278.125,278.125,62.928,-35.248,1011.6,8.49,-999.0,yes,yes,no,300234066213860,BD2VHI,AOML,UNKNOWN,North
2021-10-05T06:00:00Z,1633413600,2021,6,0,278.25,278.25,62.922,-35.289,1011.6,8.45,-999.0,yes,yes,no,300234066213860,BD2VHI,AOML,UNKNOWN,North
2021-10-05T09:00:00Z,1633424400,2021,9,0,278.375,278.375,62.929,-35.346,1012.5,8.44,-999.0,yes,yes,no,300234066213860,BD2VHI,AOML,UNKNOWN,North
2021-10-05T12:00:00Z,1633435200,2021,12,0,278.5,278.5,62.937,-35.381,1013.2,8.47,-999.0,yes,yes,no,300234066213860,BD2VHI,AOML,UNKNOWN,North
2021-10-05T15:00:00Z,1633446000,2021,15,0,278.625,278.625,62.942,-35.424,1012.9,8.49,-999.0,yes,yes,no,300234066213860,BD2VHI,AOML,UNKNOWN,North
2021-10-05T18:00:00Z,1633456800,2021,18,0,278.75,278.75,62.933,-35.498,1013.3,8.49,-999.0,yes,yes,no,300234066213860,BD2VHI,AOML,UNKNOWN,North
2021-10-05T21:00:00Z,1633467600,2021,21,0,278.875,278.875,62.914,-35.585,1013.6,8.45,-999.0,yes,yes,no,300234066213860,BD2VHI,AOML,UNKNOWN,North
2021-10-06T00:00:00Z,1633478400,2021,0,0,279.0,279.0,62.899,-35.665,1014.9,8.17,-999.0,yes,yes,no,300234066213860,BD2VHI,AOML,UNKNOWN,North
2021-10-06T03:00:00Z,1633489200,2021,3,0,279.125,279.125,62.883,-35.71,1014.2,8.18,-999.0,yes,yes,no,300234066213860,BD2VHI,AOML,UNKNOWN,North
2021-10-06T06:00:00Z,1633500000,2021,6,0,279.25,279.25,62.852,-35.75,1013.1,8.12,-999.0,yes,yes,no,300234066213860,BD2VHI,AOML,UNKNOWN,North
2021-10-06T09:00:00Z,1633510800,2021,9,0,279.375,279.375,62.81,-35.814,1012.4,8.16,-999.0,yes,yes,no,300234066213860,BD2VHI,AOML,UNKNOWN,North
2021-10-06T12:00:00Z,1633521600,2021,12,0,279.5,279.5,62.77,-35.884,1011.6,8.23,-999.0,yes,yes,no,300234066213860,BD2VHI,AOML,UNKNOWN,North
2021-10-06T15:00:00Z,1633532400,2021,15,0,279.625,279.625,62.729,-35.953,1009.1,8.18,-999.0,yes,yes,no,300234066213860,BD2VHI,AOML,UNKNOWN,North
2021-10-06T18:00:00Z,1633543200,2021,18,0,279.75,279.75,62.685,-36.025,1007.0,8.12,-999.0,yes,yes,no,300234066213860,BD2VHI,AOML,UNKNOWN,North
2021-10-06T21:00:00Z,1633554000,2021,21,0,279.875,279.875,62.644,-36.102,1007.0,8.11,-999.0,yes,yes,no,300234066213860,BD2VHI,AOML,UNKNOWN,North
2021-10-07T00:00:00Z,1633564800,2021,0,0,280.0,280.0,62.607,-36.18,1006.9,8.17,-999.0,yes,yes,no,300234066213860,BD2VHI,AOML,UNKNOWN,North
2021-10-07T03:00:00Z,1633575600,2021,3,0,280.125,280.125,62.575,-36.244,1005.8,8.11,-999.0,yes,yes,no,300234066213860,BD2VHI,AOML,UNKNOWN,North
2021-10-07T06:00:00Z,1633586400,2021,6,0,280.25,280.25,62.54,-36.313,1004.2,8.19,-999.0,yes,yes,no,300234066213860,BD2VHI,AOML,UNKNOWN,North
2021-10-07T09:00:00Z,1633597200,2021,9,0,280.375,280.375,62.508,-36.39,1003.4,8.12,-999.0,yes,yes,no,300234066213860,BD2VHI,AOML,UNKNOWN,North
2021-10-07T12:00:00Z,1633608000,2021,12,0,280.5,280.5,62.472,-36.461,1002.8,8.06,-999.0,yes,yes,no,300234066213860,BD2VHI,AOML,UNKNOWN,North
2021-10-07T15:00:00Z,1633618800,2021,15,0,280.625,280.625,62.439,-36.519,1001.7,8.07,-999.0,yes,yes,no,300234066213860,BD2VHI,AOML,UNKNOWN,North
2021-10-07T18:00:00Z,1633629600,2021,18,0,280.75,280.75,62.4,-36.585,1001.3,8.06,-999.0,yes,yes,no,300234066213860,BD2VHI,AOML,UNKNOWN,North
2021-10-07T21:00:00Z,1633640400,2021,21,0,280.875,280.875,62.346,-36.677,1001.3,7.83,-999.0,yes,yes,no,300234066213860,BD2VHI,AOML,UNKNOWN,North
2021-10-08T00:00:00Z,1633651200,2021,0,0,281.0,281.0,62.296,-36.771,1002.0,7.99,-999.0,yes,yes,no,300234066213860,BD2VHI,AOML,UNKNOWN,North
2021-10-08T03:00:00Z,1633662000,2021,3,0,281.125,281.125,62.261,-36.866,1002.0,7.82,-999.0,yes,yes,no,300234066213860,BD2VHI,AOML,UNKNOWN,North
2021-10-08T06:00:00Z,1633672800,2021,6,0,281.25,281.25,62.221,-36.946,1002.2,7.72,-999.0,yes,yes,no,300234066213860,BD2VHI,AOML,UNKNOWN,North
2021-10-08T09:00:00Z,1633683600,2021,9,0,281.375,281.375,62.173,-37.033,1002.8,7.64,-999.0,yes,yes,no,300234066213860,BD2VHI,AOML,UNKNOWN,North
2021-10-08T12:00:00Z,1633694400,2021,12,0,281.5,281.5,62.129,-37.11,1003.7,7.69,-999.0,yes,yes,no,300234066213860,BD2VHI,AOML,UNKNOWN,North
2021-10-08T15:00:00Z,1633705200,2021,15,0,281.625,281.625,62.086,-37.17,1003.7,7.72,-999.0,yes,yes,no,300234066213860,BD2VHI,AOML,UNKNOWN,North
2021-10-08T18:00:00Z,1633716000,2021,18,0,281.75,281.75,62.04,-37.214,1002.9,7.65,-999.0,yes,yes,no,300234066213860,BD2VHI,AOML,UNKNOWN,North
2021-10-08T21:00:00Z,1633726800,2021,21,0,281.875,281.875,61.975,-37.237,999.9,7.62,-999.0,yes,yes,no,300234066213860,BD2VHI,AOML,UNKNOWN,North
2021-10-09T00:00:00Z,1633737600,2021,0,0,282.0,282.0,61.899,-37.267,999.1,7.46,-999.0,yes,yes,no,300234066213860,BD2VHI,AOML,UNKNOWN,North
2021-10-09T03:00:00Z,1633748400,2021,3,0,282.125,282.125,61.848,-37.315,1002.2,7.54,-999.0,yes,yes,no,300234066213860,BD2VHI,AOML,UNKNOWN,North
2021-10-09T06:00:00Z,1633759200,2021,6,0,282.25,282.25,61.821,-37.365,1005.5,7.36,-999.0,yes,yes,no,300234066213860,BD2VHI,AOML,UNKNOWN,North
2021-10-09T09:00:00Z,1633770000,2021,9,0,282.375,282.375,61.783,-37.415,1010.4,7.25,-999.0,yes,yes,no,300234066213860,BD2VHI,AOML,UNKNOWN,North
2021-10-09T12:00:00Z,1633780800,2021,12,0,282.5,282.5,61.728,-37.457,1014.3,7.19,-999.0,yes,yes,no,300234066213860,BD2VHI,AOML,UNKNOWN,North
2021-10-09T15:00:00Z,1633791600,2021,15,0,282.625,282.625,61.679,-37.508,1017.2,7.15,-999.0,yes,yes,no,300234066213860,BD2VHI,AOML,UNKNOWN,North
2021-10-09T18:00:00Z,1633802400,2021,18,0,282.75,282.75,61.655,-37.546,1018.9,7.14,-999.0,yes,yes,no,300234066213860,BD2VHI,AOML,UNKNOWN,North
2021-10-09T21:00:00Z,1633813200,2021,21,0,282.875,282.875,61.634,-37.558,1020.7,7.14,-999.0,yes,yes,no,300234066213860,BD2VHI,AOML,UNKNOWN,North
2021-10-10T00:00:00Z,1633824000,2021,0,0,283.0,283.0,61.605,-37.556,1021.7,7.15,-999.0,yes,yes,no,300234066213860,BD2VHI,AOML,UNKNOWN,North
2021-10-10T03:00:00Z,1633834800,2021,3,0,283.125,283.125,61.582,-37.56,1021.9,7.15,-999.0,yes,yes,no,300234066213860,BD2VHI,AOML,UNKNOWN,North
2021-10-10T06:00:00Z,1633845600,2021,6,0,283.25,283.25,61.573,-37.563,1021.2,7.13,-999.0,yes,yes,no,300234066213860,BD2VHI,AOML,UNKNOWN,North
2021-10-10T09:00:00Z,1633856400,2021,9,0,283.375,283.375,61.564,-37.567,1021.7,7.11,-999.0,yes,yes,no,300234066213860,BD2VHI,AOML,UNKNOWN,North
2021-10-10T12:00:00Z,1633867200,2021,12,0,283.5,283.5,61.555,-37.562,1021.4,7.14,-999.0,yes,yes,no,300234066213860,BD2VHI,AOML,UNKNOWN,North
2021-10-10T15:00:00Z,1633878000,2021,15,0,283.625,283.625,61.545,-37.559,1021.0,7.24,-999.0,yes,yes,no,300234066213860,BD2VHI,AOML,UNKNOWN,North
2021-10-10T18:00:00Z,1633888800,2021,18,0,283.75,283.75,61.536,-37.559,1020.5,7.24,-999.0,yes,yes,no,300234066213860,BD2VHI,AOML,UNKNOWN,North
2021-10-10T21:00:00Z,1633899600,2021,21,0,283.875,283.875,61.523,-37.584,1020.3,7.16,-999.0,yes,yes,no,300234066213860,BD2VHI,AOML,UNKNOWN,North
2021-10-11T00:00:00Z,1633910400,2021,0,0,284.0,284.0,61.51,-37.621,1020.5,7.13,-999.0,yes,yes,no,300234066213860,BD2VHI,AOML,UNKNOWN,North
2021-10-11T03:00:00Z,1633921200,2021,3,0,284.125,284.125,61.495,-37.65,1019.8,7.17,-999.0,yes,yes,no,300234066213860,BD2VHI,AOML,UNKNOWN,North
2021-10-11T06:00:00Z,1633932000,2021,6,0,284.25,284.25,61.478,-37.676,1019.3,7.24,-999.0,yes,yes,no,300234066213860,BD2VHI,AOML,UNKNOWN,North
2021-10-11T09:00:00Z,1633942800,2021,9,0,284.375,284.375,61.458,-37.739,1019.1,7.24,-999.0,yes,yes,no,300234066213860,BD2VHI,AOML,UNKNOWN,North
2021-10-11T12:00:00Z,1633953600,2021,12,0,284.5,284.5,61.435,-37.815,1018.7,7.31,-999.0,yes,yes,no,300234066213860,BD2VHI,AOML,UNKNOWN,North